Location: Bonac
(42.8765°N, 0.9753°E)
Time: 03:32:49
(UTC+00:00)

NOSS 3-4 (A) - Visible Passes

Search period start: 21 April 2026 00:00
Search period end: 01 May 2026 00:00
Orbit: 769 x 1442 km, 63.4° (Epoch: 10 January)

Date Brightness Start Highest point End Pass type
(mag) Time Alt. Az. Time Alt. Az. Time Alt. Az.
21 Apr 6.3 00:41:53 10° NNW 00:45:41 16° NNE 00:49:49 10° ENE visible
21 Apr 4.9 02:31:49 10° NNW 02:38:16 46° NE 02:45:46 10° ESE visible
21 Apr 4.2 04:22:35 10° NW 04:29:18 47° WSW 04:37:02 10° S visible
21 Apr 4.9 20:08:14 10° WSW 20:13:04 34° NW 20:18:22 10° NNE visible
21 Apr 6.3 22:03:34 10° NW 22:05:57 12° NNW 22:08:27 10° N visible
21 Apr 6.4 23:57:08 10° N 23:59:55 13° NNE 00:02:52 10° NE visible
22 Apr 5.4 01:47:03 10° NNW 01:52:58 33° NE 01:59:46 10° ESE visible
22 Apr 3.9 03:37:26 10° NW 03:44:22 71° WSW 03:52:29 10° SSE visible
22 Apr 4.1 19:22:44 10° SW 19:27:52 53° NW 19:33:31 10° NNE visible
22 Apr 6.1 21:16:59 10° WNW 21:20:13 15° NNW 21:23:39 10° NNE visible
22 Apr 6.5 23:12:14 10° N 23:14:04 11° N 23:15:58 10° NNE visible
23 Apr 5.8 01:02:19 10° NNW 01:07:33 24° NE 01:13:25 10° E visible
23 Apr 4.0 02:52:27 10° NW 02:59:22 81° NE 03:07:29 10° SE visible
23 Apr 5.8 20:30:38 10° WNW 20:34:36 20° NNW 20:38:54 10° NNE visible
23 Apr 6.4 22:26:46 10° NNW 22:28:11 11° N 22:29:39 10° NNE visible
24 Apr 6.1 00:17:37 10° NNW 00:21:59 18° NNE 00:26:46 10° ENE visible
24 Apr 4.5 02:07:36 10° NNW 02:14:16 56° NE 02:22:05 10° SE visible
24 Apr 4.4 03:58:40 10° NW 04:05:06 37° WSW 04:12:25 10° S visible
24 Apr 5.4 19:44:35 10° W 19:49:09 28° NW 19:54:08 10° NNE visible
24 Apr 6.3 21:40:25 10° NNW 21:42:20 11° N 21:44:18 10° N visible
24 Apr 6.3 23:32:54 10° NNW 23:36:17 14° NNE 23:39:55 10° NE visible
25 Apr 5.0 01:22:48 10° NNW 01:29:04 40° NE 01:36:18 10° ESE visible
25 Apr 4.0 03:13:24 10° NW 03:20:14 56° WSW 03:28:10 10° SSE visible
25 Apr 6.2 20:53:47 10° NW 20:56:32 13° NNW 20:59:25 10° NNE visible
25 Apr 6.3 22:48:07 10° N 22:50:29 12° NNE 22:52:57 10° NE visible
26 Apr 5.5 00:38:03 10° NNW 00:43:43 29° NE 00:50:08 10° E visible
26 Apr 3.8 02:28:20 10° NW 02:35:17 82° SW 02:43:26 10° SSE visible
26 Apr 5.1 04:20:56 10° WNW 04:25:35 18° WSW 04:30:36 10° SSW visible
26 Apr 6.0 20:07:18 10° WNW 20:10:51 17° NNW 20:14:39 10° NNE visible
26 Apr 6.3 22:03:03 10° N 22:04:36 11° N 22:06:13 10° NNE visible
26 Apr 5.8 23:53:20 10° NNW 23:58:14 21° NNE 00:03:40 10° E visible
27 Apr 4.1 01:43:24 10° NNW 01:50:14 70° NE 01:58:16 10° SE visible
27 Apr 4.7 03:34:53 10° WNW 03:40:53 29° WSW 03:47:35 10° SSW visible
27 Apr 5.7 19:21:04 10° W 19:25:18 23° NNW 19:29:55 10° NNE visible
27 Apr 6.3 21:17:12 10° NNW 21:18:44 11° N 21:20:19 10° N visible
27 Apr 6.1 23:08:39 10° NNW 23:12:37 16° NNE 23:16:56 10° ENE visible
28 Apr 4.6 00:58:34 10° NNW 01:05:06 49° NE 01:12:42 10° ESE visible
28 Apr 4.2 02:49:26 10° NW 02:56:05 44° WSW 03:03:42 10° S visible
28 Apr 6.2 20:30:38 10° NW 20:32:53 12° NNW 20:35:14 10° N visible
28 Apr 6.2 22:23:54 10° NNW 22:26:51 13° NNE 22:30:00 10° NE visible
29 Apr 5.1 00:13:48 10° NNW 00:19:50 34° NE 00:26:45 10° ESE visible
29 Apr 3.8 02:04:15 10° NW 02:11:10 66° WSW 02:19:00 11° SSE visible
29 Apr 5.4 03:58:06 10° W 04:01:16 13° WSW 04:04:34 10° SW visible
29 Apr 6.0 19:44:03 10° NW 19:47:08 15° NNW 19:50:25 10° NNE visible
29 Apr 6.2 21:39:03 10° N 21:41:01 11° N 21:43:04 10° NNE visible
29 Apr 5.5 23:29:05 10° NNW 23:34:26 25° NE 23:40:28 10° E visible
30 Apr 3.8 01:19:15 10° NW 01:26:11 86° NE 01:30:28 31° SE visible
30 Apr 5.0 03:11:18 10° WNW 03:16:37 22° WSW 03:17:42 21° WSW visible
30 Apr 6.2 20:53:43 10° NNW 20:55:08 11° N 20:56:36 10° NNE visible
30 Apr 5.8 22:44:23 10° NNW 22:48:54 19° NNE 22:53:53 10° ENE visible
